DIAMANT R/B, 1805

Orbit data source: Space-Track

DIAMANT R/B, 1805 is space debris in LEO originally from a launch on Fri, 26 Nov 1965 UTC launched from the Hamma Guira Space Track Range (HGSTR). Debris objects in space refer to the collection of defunct objects orbiting the Earth. Examples of debris include non-operational satellites, rocket bodies, and fragments generated from explosions, collisions, or faulty payload assembly.

Loading next visibility...
Identifier
1805, 1965-096B
Orbit
LEO
Country
Flag of FRFR
Related business
Manufacturer
Sud
Mission
Spacecraft
Bus & Motor
RUBIS, Unknown motor
Mass
65 kg wet, 65 kg dry
Launch date (UTC)
1965-11-26 (60 years ago)
Launch vehicle
Unknown
Launch site
Hamma Guira Space Track Range (HGSTR)
Object type
Payload
Rocket body
Debris
Shape & HBR
Cyl, 1.1 m
Radar Cross Section
1.347 m², Large (>1 m²)

Expand to show TLE details & history
Last TLE update: 16 hours ago

TLE from 16 hours ago
0 DIAMANT R/B
1 01805U 65096B   25259.46429303  .00002428  00000-0  50522-3 0  9997
2 01805  34.2486 325.3620 0587507 188.6726 170.3391 13.86679397966671
Epoch: 2025-09-16T11:08Z
TLE epoch observation values (Epoch: 2025-09-16T11:08:34.917Z)
Latitude
-0.00001°
Longitude
162.56227°
Altitude
1,363.608 km
Speed
6.968 km/s
True Right ascension
21h 41m 26s
True Declination
0° 00' 00"
Sunlit
Object was in full shadow at epoch
Visualization orbit readout
Latitude
Unknown
Longitude
Unknown
Altitude
Unknown
Speed
Unknown
Apparent Right ascension
Unknown
Apparent Declination
Unknown
Sunlit
N/A
Visualization observer readout
Local Sidereal Time
20:20:13
Azimuth
Unknown
Elevation
Unknown
Doppler factor
Unknown
Orbital elements
Apogee altitude
1,373.621 km
Perigee altitude
513.322 km
Semi-major axis
7,321.609 km
Eccentricity
0.05875
Inclination
34.2486°
RAAN
325.362°
Arg. of periapsis
188.6726°
True anomaly
171.39238°
Mean anomaly
170.3391°
Eccentric anomaly
170.87305°
Mean motion
3.46444 °/min
Orbital period
103.91 mins
BSTAR
0.00050522
Loading maneuver chart data...
Computing Atmospheric mass density...
Loading historical data...
Loading historical data...
Loading historical data...
Loading historical data...
Loading historical data...
Loading historical data...
Loading historical data...
Other satellites on launch #96 in the year 1965 (1965-11-26 UTC)

Documentation

Showing up to 5 results
|